Time,TemperatureF,DewpointF,PressureIn,WindDirection,WindDirectionDegrees,WindSpeedMPH,WindSpeedGustMPH,Humidity,HourlyPrecipIn,Conditions,Clouds,dailyrainin,SolarRadiationWatts/m^2,SoftwareType,DateUTC
2013-12-25 00:11:00,63.0,26.0,-100.00,ENE,76,27.0,39.0,24,0.00,,,0.00,0.000000,,2013-12-25 08:11:00,
2013-12-25 00:21:00,63.0,26.0,-100.00,ENE,76,27.0,39.0,24,0.00,,,0.00,0.000000,,2013-12-25 08:21:00,
2013-12-25 00:31:00,63.0,26.0,-100.00,ENE,76,27.0,39.0,24,0.00,,,0.00,0.000000,,2013-12-25 08:31:00,
2013-12-25 00:42:00,63.0,26.0,-100.00,ENE,76,27.0,39.0,24,0.00,,,0.00,0.000000,,2013-12-25 08:42:00,
2013-12-25 01:11:00,63.0,26.0,-100.00,ENE,72,29.0,39.0,24,0.00,,,0.00,0.000000,,2013-12-25 09:11:00,
2013-12-25 01:21:00,63.0,26.0,-100.00,ENE,72,29.0,39.0,24,0.00,,,0.00,0.000000,,2013-12-25 09:21:00,
2013-12-25 01:33:00,63.0,26.0,-100.00,ENE,72,29.0,39.0,24,0.00,,,0.00,0.000000,,2013-12-25 09:33:00,
2013-12-25 01:42:00,63.0,26.0,-100.00,ENE,72,29.0,39.0,24,0.00,,,0.00,0.000000,,2013-12-25 09:42:00,
2013-12-25 02:11:00,63.0,26.0,-100.00,ENE,73,28.0,40.0,24,0.00,,,0.00,0.000000,,2013-12-25 10:11:00,
2013-12-25 02:22:00,63.0,26.0,-100.00,ENE,73,28.0,40.0,24,0.00,,,0.00,0.000000,,2013-12-25 10:22:00,
2013-12-25 02:32:00,63.0,26.0,-100.00,ENE,73,28.0,40.0,24,0.00,,,0.00,0.000000,,2013-12-25 10:32:00,
2013-12-25 02:43:00,63.0,26.0,-100.00,ENE,73,28.0,40.0,24,0.00,,,0.00,0.000000,,2013-12-25 10:43:00,
2013-12-25 03:12:00,63.0,26.0,-100.00,ENE,66,31.0,44.0,24,0.00,,,0.00,0.000000,,2013-12-25 11:12:00,
2013-12-25 03:22:00,63.0,26.0,-100.00,ENE,66,31.0,44.0,24,0.00,,,0.00,0.000000,,2013-12-25 11:22:00,
2013-12-25 03:32:00,63.0,26.0,-100.00,ENE,66,31.0,44.0,24,0.00,,,0.00,0.000000,,2013-12-25 11:32:00,
2013-12-25 03:42:00,63.0,26.0,-100.00,ENE,66,31.0,44.0,24,0.00,,,0.00,0.000000,,2013-12-25 11:42:00,
2013-12-25 04:11:00,62.0,25.0,-100.00,ENE,65,35.0,51.0,24,0.00,,,0.00,0.000000,,2013-12-25 12:11:00,
2013-12-25 04:22:00,62.0,25.0,-100.00,ENE,65,35.0,51.0,24,0.00,,,0.00,0.000000,,2013-12-25 12:22:00,
2013-12-25 04:32:00,62.0,25.0,-100.00,ENE,65,35.0,51.0,24,0.00,,,0.00,0.000000,,2013-12-25 12:32:00,
2013-12-25 04:42:00,62.0,25.0,-100.00,ENE,65,35.0,51.0,24,0.00,,,0.00,0.000000,,2013-12-25 12:42:00,
2013-12-25 05:12:00,62.0,25.0,-100.00,ENE,63,38.0,53.0,24,0.00,,,0.00,0.000000,,2013-12-25 13:12:00,
2013-12-25 05:21:00,62.0,25.0,-100.00,ENE,63,38.0,53.0,24,0.00,,,0.00,0.000000,,2013-12-25 13:21:00,
2013-12-25 05:32:00,62.0,25.0,-100.00,ENE,63,38.0,53.0,24,0.00,,,0.00,0.000000,,2013-12-25 13:32:00,
2013-12-25 05:42:00,62.0,25.0,-100.00,ENE,63,38.0,53.0,24,0.00,,,0.00,0.000000,,2013-12-25 13:42:00,
2013-12-25 06:12:00,62.0,25.0,-100.00,ENE,68,36.0,52.0,24,0.00,,,0.00,0.000000,,2013-12-25 14:12:00,
2013-12-25 06:22:00,62.0,25.0,-100.00,ENE,68,36.0,52.0,24,0.00,,,0.00,0.000000,,2013-12-25 14:22:00,
2013-12-25 06:32:00,62.0,25.0,-100.00,ENE,68,36.0,52.0,24,0.00,,,0.00,0.000000,,2013-12-25 14:32:00,
2013-12-25 06:42:00,62.0,25.0,-100.00,ENE,68,36.0,52.0,24,0.00,,,0.00,0.000000,,2013-12-25 14:42:00,
2013-12-25 07:11:00,62.0,24.0,-100.00,North,-999,0.0,54.0,23,0.00,,,-99.99,1.000000,,2013-12-25 15:11:00,
2013-12-25 07:22:00,62.0,24.0,-100.00,North,-999,0.0,54.0,23,0.00,,,-99.99,1.000000,,2013-12-25 15:22:00,
2013-12-25 07:33:00,62.0,24.0,-100.00,North,-999,0.0,54.0,23,0.00,,,-99.99,1.000000,,2013-12-25 15:33:00,
2013-12-25 07:43:00,62.0,24.0,-100.00,North,-999,0.0,54.0,23,0.00,,,-99.99,1.000000,,2013-12-25 15:43:00,
2013-12-25 08:13:00,61.0,23.0,-100.00,North,-999,0.0,1.0,23,0.00,,,0.00,12.000000,,2013-12-25 16:13:00,
2013-12-25 08:23:00,61.0,23.0,-100.00,North,-999,0.0,1.0,23,0.00,,,0.00,12.000000,,2013-12-25 16:23:00,
2013-12-25 08:33:00,61.0,23.0,-100.00,North,-999,0.0,1.0,23,0.00,,,0.00,12.000000,,2013-12-25 16:33:00,
2013-12-25 08:42:00,61.0,23.0,-100.00,North,-999,0.0,1.0,23,0.00,,,0.00,12.000000,,2013-12-25 16:42:00,
2013-12-25 09:12:00,62.0,23.0,-100.00,North,-999,0.0,1.0,22,0.00,,,0.00,150.000000,,2013-12-25 17:12:00,
2013-12-25 09:22:00,62.0,23.0,-100.00,North,-999,0.0,1.0,22,0.00,,,0.00,150.000000,,2013-12-25 17:22:00,
2013-12-25 09:32:00,62.0,23.0,-100.00,North,-999,0.0,1.0,22,0.00,,,0.00,150.000000,,2013-12-25 17:32:00,
2013-12-25 09:42:00,62.0,23.0,-100.00,North,-999,0.0,1.0,22,0.00,,,0.00,150.000000,,2013-12-25 17:42:00,
2013-12-25 10:12:00,63.0,22.0,-100.00,North,-999,0.0,1.0,21,0.00,,,0.00,358.000000,,2013-12-25 18:12:00,
2013-12-25 10:22:00,63.0,22.0,-100.00,North,-999,0.0,1.0,21,0.00,,,0.00,358.000000,,2013-12-25 18:22:00,
2013-12-25 10:33:00,63.0,22.0,-100.00,North,-999,0.0,1.0,21,0.00,,,0.00,358.000000,,2013-12-25 18:33:00,
2013-12-25 10:42:00,63.0,22.0,-100.00,North,-999,0.0,1.0,21,0.00,,,0.00,358.000000,,2013-12-25 18:42:00,
2013-12-25 11:12:00,64.0,21.0,-100.00,North,-999,0.0,1.0,19,0.01,,,0.01,480.000000,,2013-12-25 19:12:00,
2013-12-25 11:22:00,64.0,21.0,-100.00,North,-999,0.0,1.0,19,0.01,,,0.01,480.000000,,2013-12-25 19:22:00,
2013-12-25 11:32:00,64.0,21.0,-100.00,North,-999,0.0,1.0,19,0.01,,,0.01,480.000000,,2013-12-25 19:32:00,
2013-12-25 11:42:00,64.0,21.0,-100.00,North,-999,0.0,1.0,19,0.01,,,0.01,480.000000,,2013-12-25 19:42:00,
2013-12-25 12:11:00,65.0,19.0,-100.00,North,-999,0.0,1.0,17,0.00,,,0.01,519.000000,,2013-12-25 20:11:00,
2013-12-25 12:21:00,65.0,19.0,-100.00,North,-999,0.0,1.0,17,0.00,,,0.01,519.000000,,2013-12-25 20:21:00,
2013-12-25 12:32:00,65.0,19.0,-100.00,North,-999,0.0,1.0,17,0.00,,,0.01,519.000000,,2013-12-25 20:32:00,
2013-12-25 12:42:00,65.0,19.0,-100.00,North,-999,0.0,1.0,17,0.00,,,0.01,519.000000,,2013-12-25 20:42:00,
2013-12-25 13:12:00,66.0,14.0,-100.00,North,-999,0.0,1.0,13,0.00,,,0.01,551.000000,,2013-12-25 21:12:00,
2013-12-25 13:22:00,66.0,14.0,-100.00,North,-999,0.0,1.0,13,0.00,,,0.01,551.000000,,2013-12-25 21:22:00,
2013-12-25 13:33:00,66.0,14.0,-100.00,North,-999,0.0,1.0,13,0.00,,,0.01,551.000000,,2013-12-25 21:33:00,
2013-12-25 13:43:00,66.0,14.0,-100.00,North,-999,0.0,1.0,13,0.00,,,0.01,551.000000,,2013-12-25 21:43:00,
2013-12-25 14:13:00,67.0,15.0,-100.00,North,-999,0.0,1.0,13,0.00,,,0.01,515.000000,,2013-12-25 22:13:00,
2013-12-25 14:23:00,67.0,15.0,-100.00,North,-999,0.0,1.0,13,0.00,,,0.01,515.000000,,2013-12-25 22:23:00,
2013-12-25 14:33:00,67.0,15.0,-100.00,North,-999,0.0,1.0,13,0.00,,,0.01,515.000000,,2013-12-25 22:33:00,
2013-12-25 14:42:00,67.0,15.0,-100.00,North,-999,0.0,1.0,13,0.00,,,0.01,515.000000,,2013-12-25 22:42:00,
2013-12-25 15:12:00,67.0,15.0,-100.00,North,-999,0.0,1.0,13,0.00,,,0.01,400.000000,,2013-12-25 23:12:00,
2013-12-25 15:22:00,67.0,15.0,-100.00,North,-999,0.0,1.0,13,0.00,,,0.01,400.000000,,2013-12-25 23:22:00,
2013-12-25 15:33:00,67.0,15.0,-100.00,North,-999,0.0,1.0,13,0.00,,,0.01,400.000000,,2013-12-25 23:33:00,
2013-12-25 15:42:00,67.0,15.0,-100.00,North,-999,0.0,1.0,13,0.00,,,0.01,400.000000,,2013-12-25 23:42:00,
2013-12-25 16:11:00,66.0,14.0,-100.00,North,-999,0.0,1.0,13,0.00,,,0.01,248.000000,,2013-12-26 00:11:00,
2013-12-25 16:21:00,66.0,14.0,-100.00,North,-999,0.0,1.0,13,0.00,,,0.01,248.000000,,2013-12-26 00:21:00,
2013-12-25 16:32:00,66.0,14.0,-100.00,North,-999,0.0,1.0,13,0.00,,,0.01,248.000000,,2013-12-26 00:32:00,
2013-12-25 16:42:00,66.0,14.0,-100.00,North,-999,0.0,1.0,13,0.00,,,0.01,248.000000,,2013-12-26 00:42:00,
2013-12-25 17:12:00,66.0,15.0,-100.00,North,-999,0.0,1.0,14,0.00,,,0.01,72.000000,,2013-12-26 01:12:00,
2013-12-25 17:21:00,66.0,15.0,-100.00,North,-999,0.0,1.0,14,0.00,,,0.01,72.000000,,2013-12-26 01:21:00,
2013-12-25 17:32:00,66.0,15.0,-100.00,North,-999,0.0,1.0,14,0.00,,,0.01,72.000000,,2013-12-26 01:32:00,
2013-12-25 17:42:00,66.0,15.0,-100.00,North,-999,0.0,1.0,14,0.00,,,0.01,72.000000,,2013-12-26 01:42:00,
2013-12-25 18:11:00,65.0,16.0,-100.00,North,-999,0.0,1.0,15,0.00,,,0.01,1.000000,,2013-12-26 02:11:00,
2013-12-25 18:21:00,65.0,16.0,-100.00,North,-999,0.0,1.0,15,0.00,,,0.01,1.000000,,2013-12-26 02:21:00,
2013-12-25 18:32:00,65.0,16.0,-100.00,North,-999,0.0,1.0,15,0.00,,,0.01,1.000000,,2013-12-26 02:32:00,
2013-12-25 18:41:00,65.0,16.0,-100.00,North,-999,0.0,1.0,15,0.00,,,0.01,1.000000,,2013-12-26 02:41:00,
2013-12-25 19:11:00,64.0,14.0,-100.00,North,-999,0.0,0.0,14,0.00,,,0.01,1.000000,,2013-12-26 03:11:00,
2013-12-25 19:22:00,64.0,14.0,-100.00,North,-999,0.0,0.0,14,0.00,,,0.01,1.000000,,2013-12-26 03:22:00,
2013-12-25 19:32:00,64.0,14.0,-100.00,North,-999,0.0,0.0,14,0.00,,,0.01,1.000000,,2013-12-26 03:32:00,
2013-12-25 19:43:00,64.0,14.0,-100.00,North,-999,0.0,0.0,14,0.00,,,0.01,1.000000,,2013-12-26 03:43:00,
2013-12-25 20:13:00,63.0,11.0,-100.00,North,-999,0.0,0.0,13,0.00,,,0.01,0.000000,,2013-12-26 04:13:00,
2013-12-25 20:23:00,63.0,11.0,-100.00,North,-999,0.0,0.0,13,0.00,,,0.01,0.000000,,2013-12-26 04:23:00,
2013-12-25 20:33:00,63.0,11.0,-100.00,North,-999,0.0,0.0,13,0.00,,,0.01,0.000000,,2013-12-26 04:33:00,
2013-12-25 20:43:00,63.0,11.0,-100.00,North,-999,0.0,0.0,13,0.00,,,0.01,0.000000,,2013-12-26 04:43:00,
2013-12-25 21:12:00,63.0,11.0,-100.00,North,-999,0.0,0.0,13,0.00,,,0.01,0.000000,,2013-12-26 05:12:00,
2013-12-25 21:22:00,63.0,11.0,-100.00,North,-999,0.0,0.0,13,0.00,,,0.01,0.000000,,2013-12-26 05:22:00,
2013-12-25 21:32:00,63.0,11.0,-100.00,North,-999,0.0,0.0,13,0.00,,,0.01,0.000000,,2013-12-26 05:32:00,
2013-12-25 21:42:00,63.0,11.0,-100.00,North,-999,0.0,0.0,13,0.00,,,0.01,0.000000,,2013-12-26 05:42:00,
2013-12-25 22:12:00,63.0,11.0,-100.00,North,-999,0.0,1.0,13,0.00,,,0.01,1.000000,,2013-12-26 06:12:00,
2013-12-25 22:22:00,63.0,11.0,-100.00,North,-999,0.0,1.0,13,0.00,,,0.01,1.000000,,2013-12-26 06:22:00,
2013-12-25 22:33:00,63.0,11.0,-100.00,North,-999,0.0,1.0,13,0.00,,,0.01,1.000000,,2013-12-26 06:33:00,
2013-12-25 22:42:00,63.0,11.0,-100.00,North,-999,0.0,1.0,13,0.00,,,0.01,1.000000,,2013-12-26 06:42:00,
2013-12-25 23:11:00,62.0,9.0,-100.00,North,-999,0.0,0.0,12,0.00,,,0.01,1.000000,,2013-12-26 07:11:00,
2013-12-25 23:21:00,62.0,9.0,-100.00,North,-999,0.0,0.0,12,0.00,,,0.01,1.000000,,2013-12-26 07:21:00,
2013-12-25 23:32:00,62.0,9.0,-100.00,North,-999,0.0,0.0,12,0.00,,,0.01,1.000000,,2013-12-26 07:32:00,
2013-12-25 23:42:00,62.0,9.0,-100.00,North,-999,0.0,0.0,12,0.00,,,0.01,1.000000,,2013-12-26 07:42:00,